Regional Weather Roundup
Issued by NWS Green Bay, WI

Home | Current Version | Previous Version | Graphics & Text | Print | Product List | Glossary Off
Versions: 1 2 3 4 5 6 7 8 9 10 11 12 13 14 15 16 17 18 19 20 21 22 23 24 25 26 27 28 29 30 31 32 33 34 35 36 37 38 39 40 41 42 43 44 45 46 47 48 49 50

000
ASUS43 KGRB 281659
RWRGRB

NORTH-CENTRAL AND NORTHEAST WISCONSIN REGIONAL WEATHER ROUNDUP
NATIONAL WEATHER SERVICE GREEN BAY WI
1200 PM CDT MON JUL 28 2014

WIZ005-009-010>012-018-019-281800-
NORTH CENTRAL WISCONSIN

CITY           SKY/WX    TMP DP  RH WIND       PRES   REMARKS
IRONWOOD       NOT AVBL
MANITOWISH WTR NOT AVBL
ARBOR VITAE    NOT AVBL
EAGLE RIVER    NOT AVBL
LAND O LAKES   NOT AVBL
RHINELANDER    MOSUNNY   67  50  54 NW9G17    30.13F
PHILLIPS       NOT AVBL
ANTIGO         NOT AVBL
TOMAHAWK       NOT AVBL
MERRILL        NOT AVBL
$$

WIZ013-073-281800-
NORTHEAST WISCONSIN

CITY           SKY/WX    TMP DP  RH WIND       PRES   REMARKS
IRON MOUNTAIN  PTSUNNY   71  49  45 N15       30.07F
MARINETTE      SUNNY     63  46  55 S5        30.08S
$$

WIZ017-030-035>037-045-281800-
CENTRAL WISCONSIN

CITY           SKY/WX    TMP DP  RH WIND       PRES   REMARKS
MEDFORD        NOT AVBL
WAUSAU         MOSUNNY   69  49  48 NW15G28   30.11F
MOSINEE        MOSUNNY   70  54  56 NW14      30.14F
MARSHFIELD     SUNNY     71  52  50 NW17      30.15S
WISC RAPIDS    MOSUNNY   71  51  49 NW15      30.15F
STEVENS POINT  NOT AVBL
WAUPACA        NOT AVBL
SHAWANO        NOT AVBL
CLINTONVILLE   NOT AVBL
$$

WIZ038-039-048-051-281800-
FOX VALLEY

CITY           SKY/WX    TMP DP  RH WIND       PRES   REMARKS
NWS GREEN BAY  SUNNY     66  50  56 NW9       30.10F
APPLETON       MOSUNNY   64  48  55 NW8       30.12F
OSHKOSH        PTSUNNY   67  51  56 NW7       30.11F
FOND DU LAC    CLOUDY    66  48  52 N10       30.12S
$$

WIZ022-050-052-281800-
EAST CENTRAL WISCONSIN

CITY           SKY/WX    TMP DP  RH WIND       PRES   REMARKS
STURGEON BAY   SUNNY     61  43  51 N12       30.09F
MANITOWOC      NOT AVBL
SHEBOYGAN      CLOUDY    65  48  54 N15       30.09S
$$

LMZ563-521-522-541>543-281800-
LAKESHORE

STATION/POSITION TIME  TEMP    WIND        PRES    VSBY  WAVE
                       AIR SEA DIR/SP/G                  HT/PER
                 (UTC) (F)     (DEG/KT/KT) (MB)    (MI)  (FT/S)
SHEBOYGAN LKSHOR 1600   55      20/ 10/ 10 1019.3S
KEWAUNEE LKSHORE 1600   55      30/  3/  7 1019.9R
NORTHPORT PIER   1600   58     310/  7/ 10 1018.6F
N MID LAKE BUOY  1600   54 52  340/  8/ 10 1017.9R         2/ 4
S GREEN BAY BUOY 1600   58 66   20/  4     1020.3R
CHAMBERS ISLAND  1600   59      30/  3/  5 1019.0F
MENOMINEE LKSHOR 1600   59      90/  5/  6 1019.4F
$$


USA.gov is the U.S. government's official web portal to all federal, state and local government web resources and services.